Wind_Speed
20 19 20 20 19 20 20 21 21 21 20 19 19 19 18 19 19 18 18 18 18 18 18 19 19 19 19 19 19 19 19 19 19 19 18 18 18 18 18 18 18 18 18 19
22 21 22 22 21 22 22 22 22 22 21 20 21 21 21 21 21 20 20 20 20 20 20 20 20 20 20 20 20 20 20 20 20 20 20 20 19 19 19 19 19 18 18 19
25 24 24 24 22 23 23 23 23 22 21 22 22 22 23 23 23 23 22 22 23 23 22 22 22 22 21 21 21 21 21 21 22 22 22 22 21 21 20 20 20 19 18 18
26 27 28 25 24 24 24 24 24 23 23 23 24 24 25 25 25 25 25 24 24 24 24 24 23 23 23 22 22 23 23 23 23 23 23 23 22 22 21 21 20 20 20 19
27 28 29 27 25 25 25 25 25 25 25 25 25 26 26 27 27 27 27 26 25 25 25 25 25 24 25 24 24 24 24 23 24 23 23 23 22 22 21 21 21 20 21 20
29 30 30 27 26 25 26 26 26 27 27 26 26 27 27 27 28 27 27 27 27 26 26 26 26 25 25 26 25 25 24 24 24 24 23 23 23 22 22 22 21 21 21 21
30 30 30 27 27 27 27 27 27 28 28 28 28 28 28 28 29 29 28 28 28 28 27 27 27 27 26 26 27 26 25 24 24 24 24 23 23 23 23 22 22 22 22 21
29 30 29 27 26 27 27 28 28 29 29 29 29 29 29 29 29 29 29 29 29 29 29 29 29 29 28 28 28 28 26 25 25 26 25 24 24 24 24 24 24 23 23 22
28 29 28 27 27 27 28 28 29 29 29 29 29 29 30 30 31 30 30 30 30 29 29 29 30 30 30 30 29 28 27 26 26 27 26 25 25 25 25 25 24 24 23 23
27 28 28 28 29 28 29 29 29 29 29 29 29 30 30 30 31 31 31 31 31 30 30 30 30 31 31 30 29 28 28 27 26 27 26 26 25 25 24 25 25 25 24 24
27 27 28 28 29 29 28 28 29 29 29 30 30 30 31 31 31 32 32 32 31 30 31 31 31 31 30 30 29 29 28 27 27 27 27 27 26 26 25 25 25 25 25 25
26 27 27 27 28 28 28 29 29 29 29 30 30 31 32 33 33 32 32 32 31 30 30 30 30 30 30 30 29 29 29 28 27 27 27 27 27 27 26 26 26 26 26 27
27 27 28 28 28 28 29 29 30 30 30 30 31 32 32 32 33 33 32 31 31 31 30 30 29 28 29 30 30 30 29 29 29 28 28 28 28 27 27 27 27 27 27 27
27 28 28 28 29 29 29 29 30 30 30 30 31 32 32 32 33 33 33 31 31 31 30 30 29 29 30 30 31 30 30 30 30 30 29 30 29 28 28 28 28 27 27 28
27 28 28 29 29 29 30 31 31 32 31 31 31 33 33 33 33 33 34 33 32 31 31 31 31 31 31 32 32 31 31 31 32 31 31 31 30 29 29 29 29 28 28 28
27 28 28 28 28 29 30 31 31 31 31 31 32 33 33 34 34 34 34 33 33 32 31 31 31 31 32 33 33 32 32 32 33 32 32 31 31 30 30 29 29 29 29 29
26 26 27 28 29 30 31 31 31 31 31 31 32 33 33 32 32 33 33 33 33 32 31 31 32 31 32 33 33 33 33 32 32 32 32 32 31 31 30 30 30 29 30 30
27 28 29 29 30 31 31 31 32 31 31 31 32 32 32 32 32 32 32 33 33 32 31 31 32 31 31 31 32 32 32 32 32 32 32 32 31 31 30 30 30 30 30 30
28 29 29 29 30 30 30 31 31 31 31 31 31 31 31 31 31 31 31 31 32 31 31 31 32 32 31 31 32 32 31 31 32 31 31 31 31 31 31 30 31 31 31 30
28 29 29 29 30 31 30 30 31 31 31 31 31 32 31 31 31 30 30 30 30 30 31 31 31 31 31 31 31 32 32 31 31 31 31 32 31 31 31 31 31 31 31 32
28 29 29 30 30 30 30 31 31 30 29 29 30 30 30 30 30 30 29 29 29 29 29 30 30 30 31 31 31 31 31 31 31 31 31 32 31 31 30 31 32 32 32 32
28 29 29 29 29 29 30 30 30 30 30 29 29 29 29 29 29 29 29 28 29 29 30 30 31 31 32 32 32 32 32 31 31 30 30 31 30 30 30 31 31 31 31 31
28 28 29 29 29 29 29 29 29 30 30 29 29 29 29 30 29 29 29 29 29 30 30 31 31 31 31 32 32 32 31 31 32 31 31 31 30 30 31 31 32 32 32 32
28 28 29 29 29 29 28 28 29 29 29 29 29 30 30 30 30 30 30 29 30 30 30 30 31 30 30 31 31 31 32 32 31 31 31 32 32 31 31 32 33 33 33 33
27 28 28 28 28 28 28 28 28 28 28 29 30 30 30 30 30 30 30 30 30 30 30 29 29 29 30 30 31 31 31 31 31 31 32 32 32 32 32 32 33 34 34 34
27 27 27 28 28 28 27 27 27 27 28 29 29 30 30 30 29 29 29 29 28 28 28 28 28 28 28 29 29 30 31 31 32 32 33 33 33 33 33 33 33 34 34 34
25 26 26 26 26 26 27 26 26 27 27 27 28 28 28 28 28 27 26 26 26 27 27 27 28 27 27 28 28 29 30 31 32 33 33 33 33 33 33 33 33 33 34 34
Wind_Direction
258 256 258 260 260 260 263 266 269 271 271 272 273 274 277 280 281 282 281 280 277 277 277 277 277 276 275 276 276 274 271 269 269 268 267 267 270 272 272 272 272 271 271 269
257 257 256 258 260 261 262 265 267 269 269 271 271 273 275 277 279 282 282 283 282 280 279 277 275 275 275 276 277 274 270 268 268 267 266 266 267 270 272 272 271 271 270 270
258 259 259 258 261 263 264 265 266 267 267 268 269 272 275 276 278 280 282 283 283 282 280 278 276 275 275 276 277 275 271 268 267 268 267 266 266 267 270 270 270 271 272 271
261 261 261 263 262 264 264 265 265 266 264 265 268 271 273 275 276 277 279 281 281 281 279 279 278 276 275 274 274 272 270 267 267 267 267 268 266 267 269 271 271 270 270 270
261 262 263 263 263 264 265 265 265 266 267 267 268 269 270 273 276 278 278 279 279 280 279 278 278 276 274 273 272 270 269 268 269 267 266 266 266 266 266 268 269 269 269 270
261 262 265 266 265 265 265 265 266 268 269 269 268 268 268 270 272 275 277 278 278 278 279 279 278 276 274 273 272 270 268 268 268 265 264 263 264 265 265 265 267 266 266 268
261 262 264 265 266 266 267 269 268 268 268 268 267 268 269 269 271 273 275 277 278 278 278 278 277 276 275 274 273 271 270 267 266 264 263 262 262 262 262 264 264 263 265 266
261 263 265 266 266 266 268 267 266 266 267 268 267 268 270 271 272 273 274 275 276 277 278 277 277 275 275 275 274 271 268 266 264 263 263 262 261 261 261 262 263 262 264 266
262 264 266 265 267 268 268 267 267 266 266 267 267 267 270 272 272 273 273 274 275 275 276 276 275 274 274 273 272 270 268 265 263 262 262 262 261 261 261 261 261 262 265 267
262 264 265 266 268 268 267 267 268 268 267 267 267 267 269 270 272 273 274 275 274 275 276 275 274 273 273 271 268 268 267 264 262 261 260 260 260 261 261 260 260 262 264 266
264 264 265 266 267 268 269 270 270 270 269 268 269 269 269 271 272 273 274 275 274 273 274 275 274 272 270 267 266 267 266 265 262 262 260 259 259 259 260 260 261 262 263 264
265 265 266 268 269 270 272 272 271 269 269 269 271 271 270 270 271 272 274 273 273 273 272 273 272 269 267 265 265 266 267 265 262 260 259 259 258 259 260 260 261 263 265 266
264 266 267 269 272 274 275 274 273 271 270 271 271 273 273 272 272 272 272 272 272 272 271 270 270 268 266 265 265 266 267 266 263 260 259 259 260 260 260 261 262 264 265 266
264 266 268 270 271 273 275 274 273 271 270 271 271 272 274 274 273 273 273 272 272 271 270 269 268 266 265 265 265 266 266 265 263 261 260 260 260 259 260 261 262 263 265 266
268 268 271 272 271 272 274 275 275 273 271 271 271 272 274 275 274 273 273 272 272 271 269 267 267 266 265 265 264 265 265 264 262 261 260 261 260 259 260 260 261 262 265 265
269 271 272 271 272 274 275 276 277 275 273 273 273 274 274 275 275 274 272 271 271 270 269 268 266 266 266 266 264 262 262 262 262 262 261 261 261 260 259 259 260 262 264 265
269 271 271 272 274 276 276 276 276 276 276 276 276 275 275 276 276 275 273 271 271 270 268 268 267 266 266 266 264 262 261 261 262 263 262 262 260 259 259 259 260 261 263 263
269 272 273 275 277 278 278 278 277 276 277 277 277 277 276 276 276 275 273 272 270 270 268 267 266 264 265 264 263 262 260 260 260 261 262 260 259 259 259 260 260 261 262 262
273 274 275 277 279 280 279 278 277 276 276 276 276 277 277 276 275 274 273 272 270 269 269 269 266 264 264 263 262 261 260 259 259 259 259 257 257 258 259 259 259 259 260 261
276 277 278 280 280 280 279 279 278 278 276 275 275 275 276 275 273 273 272 271 270 271 270 269 267 265 264 262 262 262 262 260 259 258 258 258 257 257 258 258 258 258 259 261
278 279 280 281 281 279 279 280 280 279 277 276 277 277 276 274 274 274 273 272 270 269 268 268 266 265 264 262 262 263 262 261 260 259 258 257 256 257 258 259 259 259 260 262
279 280 280 281 281 281 282 283 282 279 278 277 278 278 276 274 274 274 273 272 270 268 267 267 266 265 263 261 261 263 262 261 260 259 259 258 258 258 259 260 260 260 261 262
281 281 281 282 283 283 284 284 282 280 278 278 278 277 277 275 273 273 273 273 272 270 269 268 267 265 263 260 259 260 260 260 260 259 258 258 260 260 260 260 260 261 262 264
281 281 282 283 283 284 284 283 282 281 280 279 278 278 277 275 273 272 271 272 273 272 271 269 267 266 265 261 259 259 260 260 260 259 259 260 261 261 262 262 261 262 263 264
283 283 282 283 283 284 284 284 284 282 280 279 279 279 278 276 274 273 271 271 272 272 270 268 266 267 265 262 260 260 260 261 261 261 261 261 261 262 264 265 264 262 263 264
284 284 283 283 284 285 284 284 285 286 283 282 281 281 279 277 276 273 271 270 270 271 270 269 267 266 265 262 261 259 259 260 261 261 261 262 262 263 264 265 264 263 264 265
285 285 285 284 283 285 286 286 286 286 286 285 284 282 280 277 276 275 271 269 270 271 270 268 267 266 265 263 261 260 259 260 261 261 262 262 264 265 265 265 266 266 266 266
Height
5815 5816 5816 5817 5818 5818 5817 5818 5818 5818 5818 5819 5818 5818 5818 5818 5817 5817 5816 5816 5815 5815 5814 5813 5812 5812 5811 5811 5810 5810 5809 5809 5809 5809 5809 5808 5808 5808 5808 5807 5807 5807 5806 5806
5808 5809 5810 5811 5811 5812 5812 5812 5812 5812 5813 5813 5812 5812 5812 5812 5812 5811 5811 5810 5810 5809 5808 5808 5807 5806 5806 5805 5804 5804 5803 5803 5803 5803 5803 5803 5802 5802 5802 5802 5801 5801 5801 5800
5802 5803 5802 5804 5806 5805 5805 5805 5806 5806 5807 5806 5806 5806 5806 5805 5805 5805 5804 5804 5803 5802 5801 5801 5800 5800 5799 5798 5797 5797 5797 5797 5796 5796 5796 5796 5796 5796 5796 5796 5795 5795 5795 5794
5794 5795 5795 5800 5799 5798 5798 5798 5799 5799 5800 5799 5799 5799 5799 5798 5798 5798 5797 5797 5796 5795 5794 5794 5793 5792 5792 5791 5791 5790 5790 5790 5790 5790 5790 5789 5789 5789 5789 5789 5789 5789 5789 5789
5786 5786 5787 5790 5791 5791 5790 5791 5791 5791 5792 5792 5792 5792 5791 5791 5790 5790 5789 5789 5788 5787 5787 5786 5786 5785 5784 5784 5783 5783 5782 5782 5782 5782 5782 5782 5782 5782 5783 5783 5783 5783 5783 5783
5777 5777 5778 5783 5783 5782 5783 5783 5783 5783 5783 5783 5784 5784 5784 5783 5782 5782 5781 5781 5780 5780 5779 5779 5778 5777 5777 5776 5775 5775 5775 5775 5775 5775 5775 5775 5775 5775 5776 5776 5776 5776 5776 5776
5769 5768 5770 5773 5773 5773 5775 5776 5775 5774 5774 5774 5774 5775 5775 5775 5774 5773 5773 5772 5772 5771 5771 5770 5770 5769 5769 5768 5767 5767 5767 5767 5767 5767 5767 5767 5768 5768 5768 5769 5769 5769 5769 5769
5761 5760 5764 5765 5764 5765 5765 5765 5764 5764 5764 5764 5765 5765 5765 5765 5765 5765 5764 5763 5763 5763 5762 5761 5760 5760 5760 5759 5758 5758 5758 5759 5759 5759 5759 5760 5760 5760 5761 5762 5762 5762 5762 5762
5753 5755 5755 5754 5754 5755 5755 5755 5754 5754 5755 5755 5755 5755 5756 5755 5755 5755 5755 5754 5754 5754 5753 5752 5751 5751 5750 5750 5749 5749 5750 5750 5750 5751 5751 5751 5752 5752 5753 5754 5754 5755 5755 5755
5744 5745 5745 5746 5746 5746 5746 5745 5745 5745 5746 5746 5746 5746 5746 5745 5745 5745 5745 5744 5744 5744 5743 5743 5742 5741 5740 5740 5740 5740 5740 5741 5741 5742 5742 5743 5744 5744 5745 5746 5746 5747 5747 5747
5736 5737 5737 5737 5737 5737 5737 5737 5736 5736 5736 5736 5736 5736 5736 5736 5735 5735 5734 5734 5733 5733 5733 5732 5732 5731 5730 5730 5730 5731 5731 5731 5732 5733 5734 5734 5735 5736 5737 5738 5738 5739 5739 5739
5728 5729 5728 5729 5728 5728 5728 5728 5727 5727 5727 5727 5726 5726 5726 5725 5725 5724 5724 5723 5723 5723 5722 5722 5721 5721 5721 5720 5721 5721 5722 5722 5723 5724 5725 5725 5726 5727 5728 5729 5730 5730 5730 5731
5720 5720 5720 5720 5720 5719 5719 5718 5718 5717 5717 5717 5716 5716 5715 5715 5714 5713 5713 5713 5712 5712 5712 5712 5712 5712 5711 5711 5711 5712 5712 5713 5713 5714 5715 5716 5717 5718 5719 5720 5720 5721 5721 5722
5711 5711 5711 5711 5711 5710 5709 5709 5708 5707 5707 5707 5706 5705 5704 5704 5703 5703 5702 5702 5702 5701 5701 5701 5701 5702 5702 5702 5702 5702 5703 5703 5704 5705 5706 5707 5708 5708 5709 5710 5711 5712 5712 5712
5703 5702 5702 5702 5701 5700 5700 5698 5698 5697 5697 5696 5695 5694 5693 5693 5692 5692 5692 5691 5691 5690 5691 5691 5691 5692 5692 5691 5692 5692 5693 5693 5694 5695 5696 5697 5698 5699 5700 5701 5702 5702 5703 5703
5694 5694 5693 5692 5692 5691 5690 5689 5688 5687 5686 5685 5685 5684 5683 5682 5681 5681 5680 5680 5680 5680 5680 5680 5680 5681 5681 5681 5681 5682 5683 5683 5684 5685 5686 5687 5688 5689 5690 5691 5692 5692 5693 5693
5685 5685 5684 5684 5683 5682 5681 5679 5678 5677 5675 5674 5674 5673 5672 5671 5670 5670 5669 5669 5669 5669 5669 5669 5669 5670 5670 5670 5670 5671 5672 5672 5673 5674 5676 5676 5677 5679 5680 5681 5682 5682 5683 5683
5676 5676 5675 5674 5673 5672 5670 5669 5667 5666 5665 5664 5663 5662 5661 5660 5660 5659 5658 5657 5657 5657 5657 5657 5658 5658 5658 5659 5659 5660 5661 5662 5663 5664 5665 5666 5667 5668 5669 5670 5671 5672 5673 5673
5667 5666 5665 5664 5663 5661 5660 5659 5657 5656 5655 5653 5652 5651 5650 5650 5649 5648 5647 5646 5646 5646 5646 5646 5646 5647 5648 5648 5648 5649 5650 5651 5652 5653 5655 5656 5657 5658 5659 5660 5661 5661 5662 5663
5658 5657 5655 5654 5653 5651 5650 5649 5647 5646 5644 5643 5642 5641 5640 5639 5638 5637 5636 5636 5636 5636 5635 5635 5635 5636 5637 5637 5638 5639 5640 5640 5642 5643 5644 5646 5647 5648 5649 5650 5651 5651 5652 5653
5649 5647 5646 5644 5643 5641 5640 5638 5637 5635 5634 5632 5631 5630 5629 5628 5627 5626 5626 5626 5626 5625 5625 5625 5625 5626 5627 5627 5628 5628 5629 5630 5631 5633 5634 5635 5637 5638 5639 5639 5640 5641 5642 5642
5639 5638 5636 5635 5634 5632 5630 5628 5626 5625 5623 5622 5621 5619 5618 5618 5617 5616 5616 5616 5615 5615 5615 5615 5615 5616 5616 5617 5618 5619 5619 5620 5621 5623 5624 5625 5626 5627 5628 5629 5630 5630 5631 5632
5629 5628 5627 5625 5624 5622 5621 5619 5616 5615 5613 5612 5611 5609 5608 5607 5606 5606 5606 5605 5604 5604 5604 5605 5605 5605 5606 5606 5607 5608 5609 5610 5611 5612 5614 5615 5616 5617 5618 5619 5619 5620 5621 5621
5620 5618 5617 5616 5614 5612 5611 5609 5607 5605 5603 5602 5600 5599 5597 5596 5595 5595 5595 5594 5594 5594 5594 5594 5594 5595 5595 5596 5597 5598 5599 5600 5601 5603 5604 5605 5606 5607 5607 5608 5609 5609 5610 5611
5610 5609 5608 5606 5605 5603 5601 5599 5597 5595 5594 5592 5590 5588 5586 5585 5585 5584 5584 5584 5584 5583 5583 5583 5584 5584 5585 5586 5587 5588 5589 5590 5591 5592 5594 5595 5595 5596 5597 5597 5598 5598 5599 5599
5602 5600 5599 5597 5595 5593 5592 5590 5588 5586 5584 5582 5580 5578 5576 5574 5573 5573 5573 5573 5573 5573 5574 5574 5574 5575 5575 5576 5577 5578 5579 5580 5581 5582 5583 5584 5584 5585 5586 5586 5586 5587 5587 5588
5593 5592 5590 5588 5587 5585 5583 5581 5579 5577 5575 5572 5570 5568 5566 5564 5563 5563 5563 5563 5563 5564 5564 5564 5565 5565 5566 5567 5568 5569 5569 5570 5571 5571 5572 5573 5573 5574 5574 5575 5575 5575 5576 5576